STARLINK-32796, 62739

Orbit data source: Space-Track

STARLINK-32796, 62739 is a payload satellite owned by SpaceX/Seattle (US) in LEO that was launched on Tue, 21 Jan 2025 UTC via an FALCON 9 launch vehicle from the Air Force Eastern Test Range (AFETR). Payload-class satellites include a variety of spacecraft equipped with specific instruments for various scientific and technological missions. These include communications satellites like Starlink; space stations such as the ISS; scientific satellites like the Hubble; Earth observation satellites from companies like Planet Labs, Umbra, and HawkEye 360; GPS; miniature CubeSats for education and research; and military/defense satellites.

Loading next visibility...
Identifier
62739, 2025-014E
Orbit
LEO
Country
Flag of USUS
Related business
Manufacturer
SpaceX/Seattle
Mission
Operational Commercial Communications
Bus & Motor
STARLINK V2M, Unknown motor
Mass
730 kg wet, ~700 kg dry
Launch date (UTC)
2025-01-21 (11 months ago)
Launch vehicle
FALCON 9
Launch site
Air Force Eastern Test Range (AFETR)
Object type
Payload
Rocket body
Debris
Shape & HBR
Box + 2 Pan, 17.7 m
Radar Cross Section
33.884 m², Large (>1 m²)

Expand to show TLE details & history
Last TLE update: 19 hours ago

TLE from 19 hours ago
0 STARLINK-32796
1 62739U 25014E   25348.83024992  .00021992  00000-0  80648-3 0  9990
2 62739  42.9994 273.2496 0000990 305.6131  54.4628 15.27572901 50289
Epoch: 2025-12-14T19:55Z
TLE epoch observation values (Epoch: 2025-12-14T19:55:33.593Z)
Latitude
-0.00002°
Longitude
-109.37793°
Altitude
482.451 km
Speed
7.626 km/s
True Right ascension
18h 12m 59s
True Declination
0° 00' 00"
Sunlit
Object was in daylight at epoch
Visualization orbit readout
Latitude
Unknown
Longitude
Unknown
Altitude
Unknown
Speed
Unknown
Apparent Right ascension
Unknown
Apparent Declination
Unknown
Sunlit
N/A
Visualization observer readout
Local Sidereal Time
13:24:48
Azimuth
Unknown
Elevation
Unknown
Doppler factor
Unknown
Orbital elements
Apogee altitude
485.695 km
Perigee altitude
484.336 km
Semi-major axis
6,863.153 km
Eccentricity
0.0001
Inclination
42.9994°
RAAN
273.2496°
Arg. of periapsis
305.6131°
True anomaly
54.47203°
Mean anomaly
54.4628°
Eccentric anomaly
54.46742°
Mean motion
3.81731 °/min
Orbital period
94.31 mins
BSTAR
0.00080648
Loading maneuver chart data...
Computing Atmospheric mass density...
Loading historical data...
Loading historical data...
Loading historical data...
Loading historical data...
Loading historical data...
Loading historical data...
Loading historical data...

Documentation

Showing up to 5 results
|